TimeEST,TemperatureF,Dew PointF,Humidity,Sea Level PressureIn,VisibilityMPH,Wind Direction,Wind SpeedMPH,Gust SpeedMPH,PrecipitationIn,Events,Conditions,WindDirDegrees,DateUTC
12:52 AM,25.0,21.0,85,30.04,10.0,Calm,Calm,-,N/A,,Clear,0,2013-12-29 05:52:00
1:52 AM,25.0,21.9,88,30.06,8.0,NE,3.5,-,N/A,,Clear,40,2013-12-29 06:52:00
2:52 AM,27.0,23.0,85,30.06,9.0,Calm,Calm,-,N/A,,Clear,0,2013-12-29 07:52:00
3:52 AM,26.1,23.0,88,30.05,8.0,NE,3.5,-,N/A,,Clear,50,2013-12-29 08:52:00
4:52 AM,28.0,24.1,85,30.03,9.0,NE,3.5,-,N/A,,Clear,40,2013-12-29 09:52:00
5:52 AM,28.0,24.1,85,30.03,9.0,Calm,Calm,-,N/A,,Clear,0,2013-12-29 10:52:00
6:52 AM,28.9,25.0,85,30.02,9.0,Calm,Calm,-,N/A,,Clear,0,2013-12-29 11:52:00
7:52 AM,28.9,25.0,85,30.02,8.0,Calm,Calm,-,N/A,,Clear,0,2013-12-29 12:52:00
8:52 AM,30.0,26.1,85,30.04,9.0,Calm,Calm,-,N/A,,Mostly Cloudy,0,2013-12-29 13:52:00
9:52 AM,32.0,27.0,82,30.02,9.0,Calm,Calm,-,N/A,,Overcast,0,2013-12-29 14:52:00
10:52 AM,34.0,28.0,79,29.98,9.0,Calm,Calm,-,N/A,,Overcast,0,2013-12-29 15:52:00
11:52 AM,36.0,28.9,76,29.94,8.0,Calm,Calm,-,0.00,,Overcast,0,2013-12-29 16:52:00
12:52 PM,36.0,32.0,86,29.91,5.0,Calm,Calm,-,0.02,Rain,Light Rain,0,2013-12-29 17:52:00
1:41 PM,35.1,34.0,96,29.84,2.5,NE,3.5,-,0.04,Rain,Light Rain,50,2013-12-29 18:41:00
1:52 PM,36.0,34.0,93,29.83,2.0,Calm,Calm,-,0.05,Rain,Light Rain,0,2013-12-29 18:52:00
2:03 PM,36.0,34.0,93,29.82,1.5,Calm,Calm,-,0.02,Rain,Rain,0,2013-12-29 19:03:00
2:52 PM,36.0,34.0,93,29.77,0.5,Calm,Calm,-,0.07,Fog-Rain,Light Rain,0,2013-12-29 19:52:00
3:05 PM,36.0,35.1,97,29.75,1.0,Calm,Calm,-,0.01,Rain,Light Rain,0,2013-12-29 20:05:00
3:17 PM,36.0,35.1,97,29.73,0.8,NNE,3.5,-,0.03,Rain,Light Rain,20,2013-12-29 20:17:00
3:32 PM,36.0,35.1,97,29.71,0.2,Calm,Calm,-,0.04,Fog-Rain,Light Rain,0,2013-12-29 20:32:00
3:52 PM,36.0,35.1,97,29.69,0.5,NNE,4.6,-,0.08,Fog-Rain,Rain,20,2013-12-29 20:52:00
4:00 PM,37.9,36.0,93,29.67,2.0,North,5.8,-,0.01,Rain,Rain,10,2013-12-29 21:00:00
4:16 PM,37.9,37.0,97,29.63,3.0,NNE,5.8,-,0.05,Rain,Rain,20,2013-12-29 21:16:00
4:52 PM,39.9,37.9,93,29.57,3.0,NE,9.2,-,0.19,Rain,Heavy Rain,40,2013-12-29 21:52:00
5:11 PM,41.0,39.0,93,29.53,2.5,ENE,9.2,-,0.10,Rain,Heavy Rain,70,2013-12-29 22:11:00
5:52 PM,42.1,39.0,89,29.52,1.8,NE,9.2,-,0.30,Rain,Heavy Rain,50,2013-12-29 22:52:00
6:02 PM,41.0,39.9,96,29.50,2.5,NNE,8.1,-,0.05,Rain,Heavy Rain,20,2013-12-29 23:02:00
6:52 PM,41.0,39.0,93,29.48,2.5,NNE,8.1,-,0.20,Rain,Light Rain,20,2013-12-29 23:52:00
7:01 PM,41.0,39.0,93,29.46,3.0,NNE,10.4,-,0.01,Rain,Light Rain,20,2013-12-30 00:01:00
7:29 PM,41.0,39.0,93,29.43,3.0,NNE,13.8,-,0.02,Rain,Light Rain,20,2013-12-30 00:29:00
7:38 PM,41.0,39.0,93,29.42,2.5,NNE,15.0,-,0.02,Rain,Light Rain,30,2013-12-30 00:38:00
7:52 PM,41.0,39.0,93,29.41,3.0,NNE,12.7,-,0.03,Rain,Light Rain,20,2013-12-30 00:52:00
8:52 PM,39.9,37.0,89,29.42,6.0,North,12.7,-,0.00,Rain,Light Rain,10,2013-12-30 01:52:00
9:31 PM,39.0,36.0,89,29.48,4.0,NNW,16.1,25.3,0.01,Rain,Light Rain,330,2013-12-30 02:31:00
9:34 PM,39.0,36.0,89,29.48,5.0,North,10.4,25.3,0.01,Rain,Light Rain,350,2013-12-30 02:34:00
9:52 PM,39.0,36.0,89,29.50,5.0,North,11.5,-,0.01,Rain,Light Rain,350,2013-12-30 02:52:00
10:04 PM,39.0,36.0,89,29.51,5.0,NNW,12.7,18.4,0.00,Rain,Light Rain,340,2013-12-30 03:04:00
10:18 PM,39.0,36.0,89,29.51,8.0,North,9.2,-,0.00,Rain,Light Rain,350,2013-12-30 03:18:00
10:52 PM,39.0,36.0,89,29.54,10.0,NNW,9.2,-,0.00,,Mostly Cloudy,340,2013-12-30 03:52:00
11:10 PM,39.0,37.0,93,29.53,10.0,North,9.2,-,0.00,Rain,Light Rain,350,2013-12-30 04:10:00
11:21 PM,39.9,36.0,86,29.56,10.0,NW,8.1,-,0.00,,Overcast,310,2013-12-30 04:21:00
11:52 PM,39.0,35.1,86,29.58,10.0,NW,11.5,18.4,0.00,,Overcast,320,2013-12-30 04:52:00